NOAA 16 DEB, 41209

Orbit data source: Space-Track

NOAA 16 DEB, 41209 is space debris in SSO originally from a launch on Thu, 21 Sep 2000 UTC launched from the Air Force Western Test Range (AFWTR). Debris objects in space refer to the collection of defunct objects orbiting the Earth. Examples of debris include non-operational satellites, rocket bodies, and fragments generated from explosions, collisions, or faulty payload assembly.

Loading next visibility...
Identifier
41209, 2000-055DN
Orbit
SSO
Country
Flag of USUS
Related business
Manufacturer
Unknown
Mission
Spacecraft
Bus & Motor
Unknown
Mass
Unknown
Launch date (UTC)
2000-09-21 (26 years ago)
Launch vehicle
Unknown
Launch site
Air Force Western Test Range (AFWTR)
Object type
Payload
Rocket body
Debris
Shape & HBR
Unknown shape, 0.1 m
Radar Cross Section
Medium (>0.1 m² and <1 m²)

Expand to show TLE details & history
Last TLE update: 13 hours ago

TLE from 13 hours ago
0 NOAA 16 DEB
1 41209U 00055DN  26254.18500724  .00011245  00000-0  14847-2 0  9991
2 41209  98.8874 157.2410 0032379 350.7525   9.3083 14.79858122563759
Epoch: 2026-09-11T04:26Z
TLE epoch observation values (Epoch: 2026-09-11T04:26:24.625Z)
Latitude
-0.00008°
Longitude
100.42641°
Altitude
610.367 km
Speed
7.566 km/s
True Right ascension
10h 28m 57s
True Declination
0° 00' 00"
Sunlit
Object was in daylight at epoch
Visualization orbit readout
Latitude
Unknown
Longitude
Unknown
Altitude
Unknown
Speed
Unknown
Apparent Right ascension
Unknown
Apparent Declination
Unknown
Sunlit
N/A
Visualization observer readout
Local Sidereal Time
09:51:31
Azimuth
Unknown
Elevation
Unknown
Doppler factor
Unknown
Orbital elements
Apogee altitude
649.541 km
Perigee altitude
604.178 km
Semi-major axis
7,004.997 km
Eccentricity
0.00324
Inclination
98.8874°
RAAN
157.241°
Arg. of periapsis
350.7525°
True anomaly
9.36855°
Mean anomaly
9.3083°
Eccentric anomaly
9.3384°
Mean motion
3.70196 °/min
Orbital period
97.25 mins
BSTAR
0.0014847
Loading maneuver chart data...
Computing Atmospheric mass density...
Loading historical data...
Loading historical data...
Loading historical data...
Loading historical data...
Loading historical data...
Loading historical data...
Loading historical data...

Documentation

Showing up to 5 results
|